Regional Weather Roundup
Issued by NWS

Home | Current Version | Previous Version | Text Only | Print | Product List | Glossary Off
Versions: 1 2 3 4 5 6 7 8 9 10 11 12 13 14 15 16 17 18 19 20 21 22 23 24 25 26 27 28 29 30 31 32 33 34 35 36 37 38 39 40 41 42 43 44 45 46 47 48 49 50

000
ASUS45 KSLC 070110
RWRUT

UTAH REGIONAL WEATHER ROUNDUP
NATIONAL WEATHER SERVICE SALT LAKE CITY UT
700 PM MDT WED MAY 06 2015

UTZ001>011-023>025-070200-

NORTHERN UTAH

CITY           SKY/WX    TMP DP  RH WIND       PRES   REMARKS
HILL AFB       NOT AVBL
LOGAN          LGT RAIN  51  45  79 S5        29.76F
OGDEN          CLOUDY    52  46  80 N13       29.72F
PROVO AIRPORT  TSTM      57  46  67 CALM      29.72F
SALT LAKE CITY LGT RAIN  55  48  77 N14       29.71S
VERNAL         CLOUDY    55  45  68 SW8       29.77S
WENDOVER       CLOUDY    54  39  58 W6        29.76S
HEBER CITY     PTSUNNY   54  43  66 E3        29.73F
WEST JORDAN    CLOUDY    55  50  82 NW14G20   29.73S

$$

UTZ012>022-026-027-070200-

SOUTHERN/CENTRAL UTAH

CITY           SKY/WX    TMP DP  RH WIND       PRES   REMARKS
BRYCE CANYON   MOSUNNY   55  26  32 S20       29.85R
CEDAR CITY     MOSUNNY   60  30  32 SW17      29.75R
DELTA          CLOUDY    55  46  72 S10       29.75S
HANKSVILLE     SUNNY     64  37  36 N3        29.72S
MILFORD        PTSUNNY   57  38  48 W25G35    29.73R
MOAB/CYNLANDS  SUNNY     63  46  54 N9        29.70F
PRICE          RAIN      47  40  76 W14G24    29.82R
ST GEORGE      MOCLDY    79  34  19 SW20      29.65S
KANAB          PTSUNNY   66  32  28 SW13      29.76F

$$

REGIONAL REPORTS     COLORADO/ARIZONA

CITY           SKY/WX    TMP DP  RH WIND       PRES   REMARKS
CRAIG, CO      CLOUDY    50  43  77 NE5       29.81S
GRAND JUNCTION TSTM      55  47  74 W12G23    29.78R
RIFLE          CLOUDY    51  44  77 E8        29.82F
MONTROSE       PTSUNNY   58  41  53 NE8       29.81F
CORTEZ         MOSUNNY   57  41  55 S14G23    29.84S
PAGE, AZ       MOSUNNY   73  27  18 SW7G18    29.69S
GRAND CANYON   MOSUNNY   59  23  25 SW17G24   29.86S
KINGMAN        SUNNY     73  33  23 SW23G31   29.73S
FLAGSTAFF      SUNNY     55  22  27 SW21      29.91S

$$

REGIONAL REPORTS    NEVADA/IDAHO/WYOMING

CITY           SKY/WX    TMP DP  RH WIND       PRES   REMARKS
LAS VEGAS, NV  MOSUNNY   82  23  11 SW21G29   29.56S
ELY            CLOUDY    45  40  82 S3        29.81F
ELKO           PTSUNNY   59  35  40 NE15      29.69F
POCATELLO, ID  LGT RAIN  53  44  71 SW17      29.76R
BURLEY         CLOUDY    53  33  46 W8        29.76R
EVANSTON, WY   LGT RAIN  42  42 100 SW9       29.80R FOG
ROCK SPRINGS   LGT RAIN  45  40  82 SE24G31   29.80R
KEMMERER       CLOUDY    50  34  53 W16G22    29.77S

$$


USA.gov is the U.S. government's official web portal to all federal, state and local government web resources and services.